Wind_Speed
42 40 34 29 23 22 25 28 30 34 35 32 31 32 33 29 26 26 28 28 27 27 27 26 26 26 26 27 28 29 30 33 35 35 37 37 38 39
26 26 28 25 28 26 25 26 29 31 36 37 30 25 22 22 25 25 26 27 28 28 28 27 27 26 27 27 28 30 31 34 32 33 38 41 44 43
20 21 22 22 27 30 30 32 34 32 31 24 15 15 18 21 25 28 28 27 28 29 30 31 31 31 32 32 33 33 33 34 34 34 38 40 45 46
23 24 25 27 31 32 30 28 26 23 16 11 12 16 19 20 21 24 25 26 27 28 30 30 31 32 32 33 35 35 36 38 39 38 38 41 45 47
19 16 16 19 27 26 24 20 17 13 11 16 17 18 21 24 25 25 24 24 25 28 30 30 31 32 33 35 36 38 39 41 41 42 42 42 45 48
22 17 15 19 18 18 17 15 14 16 19 21 22 23 24 25 25 25 26 26 27 29 31 32 34 35 36 37 38 37 39 41 43 45 46 44 44 44
18 15 14 15 12 11 14 15 16 18 21 23 23 23 23 24 25 26 28 29 31 33 35 36 38 38 38 38 38 38 39 41 42 45 46 45 43 43
15 14 14 14 12 12 13 15 16 17 18 20 22 21 22 24 26 28 29 30 32 34 36 38 41 42 43 44 44 44 43 42 41 40 40 40 41 43
16 16 15 13 14 13 13 14 15 15 15 17 19 20 21 23 24 24 25 27 28 30 31 34 36 38 39 42 43 45 46 46 45 42 39 38 39 39
18 15 15 15 16 15 14 15 14 12 12 13 15 15 15 17 19 24 28 31 34 36 37 38 41 42 44 44 43 42 44 45 45 45 43 38 36 37
17 17 15 14 13 13 13 12 11 11 10 9 11 14 17 20 23 26 30 33 35 37 39 41 41 42 43 43 42 42 42 42 40 39 37 34 34 34
12 11 10 10 10 10 10 10 10 9 9 11 13 17 20 24 27 31 34 35 36 36 37 39 37 34 35 36 34 33 35 35 35 34 31 29 29 31
11 12 13 11 10 10 10 11 11 11 10 10 13 18 23 26 28 29 30 31 31 31 32 32 30 27 25 27 28 28 28 28 28 28 26 24 18 17
11 14 15 13 11 10 11 12 11 10 9 12 16 20 23 24 26 29 30 29 27 27 27 27 26 25 25 25 27 28 29 29 27 24 25 24 23 22
11 12 12 14 13 11 11 11 10 9 10 12 15 20 24 26 27 26 26 25 22 21 21 24 27 27 26 26 27 27 28 29 28 25 26 29 30 27
11 12 13 14 13 11 10 10 9 9 9 11 15 19 23 26 25 23 23 21 19 18 19 20 22 22 21 20 21 22 22 24 26 26 25 21 21 23
15 13 11 11 11 10 9 9 10 9 10 12 13 16 21 24 24 23 22 21 20 20 21 21 20 22 22 21 19 17 17 17 20 25 24 21 19 23
15 13 13 14 13 11 9 10 11 10 12 14 12 13 18 22 23 24 25 25 25 25 26 25 24 22 21 21 20 19 17 16 16 19 25 24 22 22
16 15 14 14 12 11 11 11 11 11 13 15 11 11 15 19 20 23 26 26 26 27 28 27 25 24 23 20 19 20 20 18 16 16 20 26 28 31
13 12 12 11 11 11 12 11 11 12 13 12 9 8 12 16 18 22 25 28 30 31 32 30 26 23 22 21 19 18 19 20 19 17 16 20 27 36
12 11 11 11 11 12 13 12 13 13 12 12 9 5 8 12 17 22 26 28 30 34 36 33 28 24 21 19 17 16 16 16 16 16 16 16 19 28
13 13 13 13 13 13 14 14 14 15 15 14 12 8 6 10 16 24 28 28 28 31 35 36 31 25 22 20 20 19 19 18 17 18 16 16 18 21
16 15 14 14 14 13 14 16 17 16 15 16 17 15 14 14 19 24 24 25 28 31 33 35 33 28 24 22 21 21 20 18 17 17 16 17 19 24
Wind_Direction
270 265 264 263 261 256 261 264 263 250 253 258 254 257 254 254 258 259 260 258 259 257 256 254 251 253 254 254 256 259 262 265 264 263 262 260 261 264
265 253 252 246 252 253 255 258 253 257 267 270 269 265 250 245 248 252 258 263 261 259 258 255 253 252 251 251 255 258 259 260 261 264 263 258 256 257
250 239 233 231 241 248 261 259 260 265 270 267 254 241 251 260 264 261 260 262 262 262 260 258 257 256 253 253 255 256 255 255 258 262 264 262 259 257
229 216 212 218 237 246 244 241 248 255 257 247 239 244 251 262 268 268 264 259 259 260 260 259 259 260 259 259 260 260 256 256 257 259 262 262 259 257
200 211 218 219 225 239 245 246 248 243 245 251 260 268 267 266 267 270 271 269 264 262 260 259 258 258 258 259 260 260 259 259 260 262 263 264 261 261
193 212 238 252 253 258 252 241 239 245 254 261 264 266 266 266 267 268 269 269 269 268 266 264 264 265 264 263 262 264 265 264 264 264 265 264 261 257
218 225 242 249 247 253 253 250 250 255 261 267 270 270 270 270 271 270 269 268 267 266 265 264 266 267 269 270 269 268 267 265 265 265 265 263 263 260
228 233 235 235 238 238 244 254 258 261 267 270 270 273 275 275 275 276 275 275 276 275 274 274 274 273 272 270 269 267 266 265 266 266 268 268 266 265
233 233 239 244 244 241 243 251 257 262 267 274 277 278 279 279 280 282 284 284 283 283 282 278 277 275 273 272 271 269 269 267 265 265 269 271 270 272
233 233 234 236 240 244 248 249 252 257 261 267 271 275 276 277 282 285 288 289 289 288 285 282 278 274 271 269 268 267 266 265 265 265 266 268 273 274
235 235 233 234 235 234 234 239 248 254 255 267 284 292 296 299 300 299 298 296 292 289 286 283 279 276 272 268 265 265 264 264 266 266 266 267 271 271
241 230 218 211 217 232 237 237 239 246 263 286 300 308 312 313 313 311 308 305 301 298 293 289 286 281 276 272 268 264 263 263 264 264 265 263 270 276
232 218 216 224 236 231 226 229 241 259 276 299 315 320 319 317 314 313 312 311 306 301 297 295 294 291 286 281 275 269 267 267 264 261 258 255 256 259
204 210 221 231 219 227 236 242 255 276 295 317 325 327 329 328 327 325 322 318 312 303 296 295 295 293 293 290 282 274 269 267 263 254 248 236 218 227
209 226 227 212 219 236 240 240 257 276 301 317 325 331 334 336 337 333 325 322 318 308 297 290 292 295 295 289 283 280 273 265 262 255 247 240 228 228
225 208 203 211 232 244 232 241 259 276 300 322 332 335 336 340 344 341 334 329 325 317 311 305 303 307 308 305 295 289 283 270 260 255 251 247 242 228
219 216 228 239 250 245 239 253 265 288 321 325 325 336 341 343 348 353 353 346 339 333 323 317 311 307 305 305 303 301 296 285 267 254 247 236 232 219
223 231 242 245 248 248 247 260 276 305 313 308 320 343 345 345 354 358 360 358 353 346 338 331 321 310 302 298 298 300 303 298 285 261 245 237 229 221
234 237 240 240 246 259 263 265 273 287 291 300 322 349 354 353 358 3 5 4 360 354 347 340 329 316 307 301 294 296 298 301 296 278 256 243 231 223
229 232 234 239 243 256 262 260 265 278 284 294 317 354 7 1 3 3 5 7 6 2 357 352 342 329 319 309 300 294 295 296 296 290 271 252 240 235
230 233 235 240 243 251 252 249 255 263 272 283 302 343 11 4 359 355 352 354 359 1 1 359 352 339 329 324 320 315 306 300 296 293 285 272 254 240
242 241 239 240 243 250 253 247 246 249 258 270 281 293 321 338 339 338 338 341 350 354 357 359 359 349 335 327 321 317 314 309 300 292 289 280 270 259
252 250 247 246 248 252 255 250 246 247 254 266 273 277 286 305 321 328 333 342 349 351 352 354 356 356 347 335 323 316 316 314 308 303 297 286 273 267
Height
5728 5730 5733 5736 5739 5740 5741 5742 5747 5749 5750 5751 5752 5753 5755 5757 5760 5762 5764 5765 5767 5769 5771 5773 5775 5776 5777 5779 5782 5783 5783 5784 5784 5783 5784 5784 5784 5783
5718 5721 5725 5729 5730 5732 5734 5736 5738 5741 5742 5744 5744 5746 5748 5749 5751 5753 5755 5758 5760 5762 5763 5765 5766 5768 5769 5769 5771 5772 5773 5775 5774 5773 5773 5773 5773 5773
5713 5716 5719 5722 5723 5724 5728 5731 5731 5733 5735 5736 5737 5739 5740 5742 5745 5747 5748 5749 5750 5752 5754 5757 5758 5758 5759 5760 5762 5763 5763 5762 5761 5761 5762 5761 5761 5761
5711 5712 5713 5715 5719 5720 5721 5723 5724 5725 5728 5730 5732 5733 5734 5735 5738 5739 5739 5739 5741 5742 5744 5746 5747 5747 5748 5750 5751 5751 5750 5750 5749 5749 5749 5749 5749 5748
5705 5707 5708 5711 5713 5715 5717 5718 5719 5722 5723 5725 5726 5728 5729 5730 5732 5732 5731 5732 5733 5733 5735 5736 5737 5738 5738 5738 5738 5737 5736 5736 5736 5736 5736 5735 5736 5738
5700 5702 5705 5708 5709 5711 5712 5713 5716 5718 5718 5719 5720 5721 5722 5723 5724 5724 5724 5725 5725 5726 5726 5726 5726 5726 5726 5725 5724 5722 5722 5723 5723 5724 5724 5724 5723 5721
5695 5698 5702 5704 5704 5705 5708 5710 5711 5712 5714 5715 5715 5717 5717 5718 5718 5719 5718 5718 5717 5717 5716 5715 5715 5714 5713 5712 5710 5708 5709 5710 5709 5710 5711 5711 5709 5707
5692 5695 5698 5699 5699 5700 5703 5706 5709 5709 5709 5710 5711 5711 5711 5712 5712 5711 5710 5709 5707 5706 5704 5703 5703 5702 5701 5700 5699 5697 5696 5695 5695 5695 5697 5696 5696 5694
5688 5691 5692 5693 5696 5698 5701 5703 5704 5704 5704 5706 5707 5707 5706 5705 5704 5703 5702 5700 5697 5696 5694 5693 5692 5691 5689 5687 5685 5683 5682 5681 5682 5684 5684 5683 5681 5679
5684 5685 5687 5691 5695 5696 5698 5699 5700 5701 5701 5701 5702 5702 5702 5701 5699 5697 5694 5692 5689 5687 5684 5681 5679 5677 5674 5673 5672 5670 5669 5668 5669 5670 5670 5668 5666 5666
5681 5683 5684 5687 5690 5692 5694 5695 5696 5697 5698 5697 5697 5696 5695 5693 5691 5689 5685 5682 5678 5674 5670 5667 5664 5661 5658 5657 5656 5656 5656 5655 5655 5655 5655 5655 5654 5654
5678 5680 5682 5684 5687 5688 5690 5691 5692 5693 5693 5693 5692 5691 5688 5686 5682 5678 5674 5670 5665 5661 5657 5653 5649 5647 5644 5643 5643 5642 5641 5641 5643 5642 5642 5643 5644 5643
5676 5678 5681 5683 5684 5685 5687 5689 5690 5690 5690 5690 5687 5685 5682 5679 5675 5671 5666 5661 5656 5651 5647 5643 5640 5638 5636 5633 5631 5630 5629 5629 5631 5631 5632 5634 5636 5636
5673 5675 5678 5679 5681 5682 5683 5684 5686 5686 5686 5684 5682 5680 5677 5673 5669 5664 5658 5652 5648 5643 5639 5636 5634 5631 5628 5625 5622 5620 5619 5619 5620 5622 5624 5626 5628 5629
5671 5672 5673 5676 5677 5678 5679 5680 5681 5682 5681 5680 5679 5676 5672 5668 5663 5657 5651 5646 5643 5638 5634 5631 5628 5625 5622 5618 5615 5613 5612 5611 5612 5615 5617 5619 5620 5623
5667 5669 5671 5673 5674 5675 5676 5676 5677 5678 5677 5675 5673 5671 5668 5664 5659 5653 5647 5643 5638 5634 5630 5626 5622 5619 5616 5612 5609 5607 5605 5605 5605 5606 5608 5611 5612 5615
5664 5665 5667 5669 5669 5671 5672 5672 5673 5673 5672 5671 5669 5667 5664 5660 5655 5650 5645 5640 5634 5630 5626 5624 5620 5616 5612 5609 5605 5602 5600 5599 5598 5599 5602 5604 5605 5607
5661 5662 5664 5665 5666 5667 5668 5669 5668 5669 5669 5669 5666 5663 5659 5656 5651 5646 5642 5637 5632 5628 5623 5619 5615 5611 5608 5604 5601 5598 5595 5593 5592 5592 5594 5597 5600 5602
5657 5658 5660 5661 5662 5662 5664 5665 5665 5666 5667 5666 5663 5658 5655 5652 5649 5644 5640 5635 5631 5626 5620 5615 5610 5605 5601 5598 5595 5593 5590 5588 5587 5586 5587 5590 5593 5594
5653 5654 5656 5658 5658 5658 5660 5661 5663 5663 5663 5661 5658 5654 5651 5650 5647 5643 5639 5634 5629 5623 5617 5610 5605 5600 5596 5592 5589 5587 5585 5583 5581 5580 5580 5582 5584 5586
5649 5650 5652 5653 5655 5656 5657 5658 5659 5659 5659 5658 5655 5651 5648 5647 5645 5641 5638 5633 5628 5621 5614 5608 5602 5597 5593 5589 5586 5584 5581 5579 5577 5576 5575 5576 5577 5579
5645 5646 5647 5648 5650 5652 5653 5653 5654 5654 5654 5653 5651 5648 5645 5643 5641 5639 5635 5631 5625 5620 5614 5607 5601 5596 5591 5587 5584 5582 5579 5576 5574 5572 5572 5572 5570 5570
5639 5640 5641 5642 5644 5646 5647 5648 5649 5649 5648 5647 5646 5644 5642 5640 5638 5635 5632 5628 5623 5618 5613 5607 5600 5595 5590 5585 5581 5579 5576 5573 5570 5568 5567 5566 5565 5564